Wind_Speed
23 24 24 22 19 19 19 18 17 18 20 21 20 19 19 19 19 19 19 19 20 20 19 20 20 21 21 22 23 23 24 25 26 27 28 28 28 28 26 23 19 17 16 15 14 12 12 11 11 11 12 11 10 10 9 8 8 8 8 8 8 8 7 6 6 5 5 5 5 5 3 2 2 3 3 3 3 3 3 4 4 4 5 4 5
23 24 22 19 18 17 17 16 16 18 19 19 18 17 17 17 17 18 18 18 18 18 18 19 19 20 20 21 22 23 24 25 26 27 28 29 29 28 27 23 19 17 16 15 14 12 11 11 11 11 11 10 9 9 8 7 7 8 8 8 8 7 6 6 5 5 5 5 5 4 3 2 3 3 3 3 3 4 4 4 4 4 5 5 6
22 21 20 18 17 16 16 15 15 17 18 17 16 15 15 16 16 16 16 16 16 16 17 17 18 18 20 21 22 23 24 25 26 27 28 29 29 28 27 24 19 17 16 15 14 12 11 11 11 10 10 9 8 8 7 7 7 7 7 7 7 7 6 6 5 5 5 5 4 3 3 3 3 3 4 4 4 4 4 4 4 4 5 5 6
21 20 18 16 15 15 15 15 15 15 15 15 15 14 15 15 15 15 15 14 14 15 15 16 17 18 19 21 22 23 23 24 26 27 28 29 30 28 27 24 20 16 15 15 13 12 11 11 10 10 9 8 7 6 5 6 6 7 7 7 7 7 6 6 5 5 5 4 3 3 2 3 3 4 4 4 4 5 4 4 4 4 5 5 6
21 19 16 14 14 14 15 15 15 14 14 14 14 14 14 15 15 14 13 13 13 13 14 15 16 17 19 20 22 22 23 24 26 27 28 29 30 29 27 25 20 16 15 15 14 12 11 11 10 9 8 7 7 6 5 6 7 7 8 8 8 7 7 6 5 5 4 4 3 3 3 3 4 4 4 4 4 5 4 4 4 4 5 5 6
20 18 15 14 14 14 14 14 14 14 13 13 14 14 14 14 14 13 12 12 12 12 13 15 16 17 19 20 21 22 22 23 25 26 27 28 29 29 27 26 21 16 15 15 15 13 12 11 10 9 8 8 7 7 6 6 7 7 7 7 8 7 7 6 5 5 4 4 3 4 3 3 4 4 5 5 5 5 5 5 5 5 5 5 5
19 17 15 14 14 14 14 14 14 13 12 13 13 13 13 13 13 13 12 11 11 12 13 14 16 17 19 19 21 21 22 22 24 25 27 28 28 28 28 26 21 16 15 16 16 14 12 11 10 9 8 8 7 6 6 6 6 6 6 7 7 7 6 6 5 4 3 3 3 3 3 3 3 4 5 5 5 6 6 6 5 5 5 5 5
18 17 16 15 15 14 15 15 14 12 11 12 12 13 13 13 12 12 11 11 11 12 13 14 16 17 19 19 20 21 21 21 23 25 26 27 28 28 27 26 21 16 15 16 16 14 12 11 10 9 8 7 6 5 5 5 5 5 5 5 5 6 6 6 5 4 3 3 2 2 2 2 3 3 4 5 5 6 6 6 6 5 5 5 6
18 18 17 16 15 15 16 16 14 11 11 11 12 12 12 12 12 12 11 11 11 12 13 15 16 17 19 19 20 20 20 20 21 23 25 26 27 27 27 26 22 15 15 17 17 15 12 11 10 9 7 7 5 4 4 4 4 4 4 4 4 5 5 5 5 4 3 2 2 2 2 2 3 3 3 4 4 5 5 5 6 5 5 5 6
18 18 17 15 15 15 16 15 13 11 10 11 12 12 12 12 12 12 11 11 12 13 14 15 17 18 19 19 19 20 20 19 20 22 24 26 26 27 26 26 22 15 15 17 17 16 12 11 9 8 7 6 5 3 3 3 4 4 4 4 4 4 4 5 4 3 2 1 1 1 2 2 3 2 3 3 4 4 4 5 5 5 5 5 5
17 17 17 16 15 16 15 14 12 11 10 11 12 12 12 12 12 12 12 12 12 14 15 17 18 19 19 18 19 21 21 20 19 20 23 25 26 26 25 25 22 15 14 16 17 17 13 10 9 8 7 6 5 3 2 2 3 4 3 3 3 3 3 3 3 2 1 1 0 1 2 2 3 3 3 3 3 4 4 5 5 5 5 5 6
17 17 16 16 16 15 15 14 13 12 11 11 11 12 12 13 12 12 12 13 14 15 17 18 19 21 19 18 19 21 22 22 18 18 22 24 25 25 25 24 22 16 14 15 17 18 15 11 9 7 6 5 4 3 2 1 3 3 3 2 2 2 2 2 2 1 0 0 1 1 2 2 2 3 3 4 4 4 5 5 6 6 6 6 6
18 17 16 16 16 16 15 15 14 13 12 11 11 12 12 13 13 13 13 14 15 17 18 19 21 21 20 19 20 21 24 23 18 18 22 24 25 25 24 24 22 17 14 14 16 18 16 13 10 8 6 4 4 3 2 1 2 2 2 2 2 2 2 3 3 2 2 2 2 2 3 3 2 3 3 4 4 5 5 6 6 6 7 7 7
17 17 16 16 16 16 16 16 15 13 12 12 12 12 12 13 13 13 14 15 16 17 18 20 21 22 21 21 21 24 24 21 19 20 22 24 25 24 24 23 22 17 14 13 15 17 17 14 12 9 6 4 4 4 3 1 1 1 2 2 2 3 3 3 3 3 4 4 4 3 3 3 3 3 3 4 4 5 5 6 6 7 7 7 7
16 16 17 17 17 17 17 16 15 14 13 13 13 13 13 13 13 14 15 16 17 18 19 20 21 22 22 22 23 24 22 21 23 22 22 24 24 24 23 23 21 17 13 12 14 16 16 15 13 10 7 5 4 5 3 1 0 1 1 2 3 3 4 3 3 3 4 4 4 3 3 3 3 4 4 4 4 5 6 6 7 7 7 7 7
16 17 18 19 18 18 17 16 15 13 13 14 14 14 14 14 14 15 16 16 18 19 20 20 21 22 20 20 22 22 21 23 25 23 22 23 23 23 22 22 20 17 13 11 12 15 16 15 14 12 8 5 5 6 4 1 2 2 1 2 2 3 4 3 3 3 3 3 3 3 4 4 4 4 5 5 5 6 6 7 7 7 8 8 8
17 18 20 20 20 19 18 16 15 14 14 15 15 15 15 15 15 16 17 17 18 18 19 20 21 22 21 21 21 22 22 23 24 23 23 22 21 22 22 21 19 17 13 11 11 13 14 15 15 13 9 6 6 7 4 2 3 2 1 0 1 3 3 3 3 3 3 3 3 3 4 4 4 5 5 6 7 7 7 7 8 8 8 9 8
19 20 21 22 21 20 19 17 16 15 15 15 16 16 16 16 16 17 17 18 18 19 20 21 22 23 23 23 22 23 22 22 23 24 24 23 22 22 21 20 18 16 13 11 11 12 13 13 14 13 10 7 7 7 4 3 4 3 2 2 2 2 3 3 3 3 3 3 3 3 4 4 4 5 6 7 8 9 9 9 8 8 8 9 9
21 22 23 23 23 22 20 18 17 16 16 16 17 17 17 17 17 17 18 19 20 21 22 23 24 24 24 24 23 23 22 22 24 24 24 24 23 22 21 20 18 16 13 11 11 11 11 11 13 13 11 9 8 7 4 4 5 4 4 3 3 3 3 4 4 4 3 3 3 3 4 4 4 5 6 7 8 9 10 10 10 9 9 9 9
23 24 25 25 24 23 21 20 18 17 16 16 17 17 17 17 18 18 19 20 21 22 23 24 24 25 24 24 23 23 23 23 25 25 24 24 24 23 21 19 18 16 13 11 11 10 9 9 11 13 11 10 10 8 5 5 6 6 6 5 5 5 4 4 5 5 4 4 4 5 5 6 6 6 6 7 8 9 9 10 11 10 10 9 9
25 26 26 25 24 24 23 21 19 18 17 17 17 18 18 18 19 20 21 21 22 23 24 25 25 25 25 25 24 24 24 24 24 24 24 22 23 23 22 19 18 17 14 11 11 9 7 8 10 13 12 11 11 9 7 6 7 7 7 7 7 7 6 6 6 7 6 6 6 6 7 8 8 8 8 8 9 10 10 11 11 11 11 11 10
26 26 26 26 25 24 23 22 20 18 17 17 17 18 18 20 20 21 21 22 23 24 26 27 27 27 27 27 26 26 25 25 25 24 24 23 23 23 22 19 19 18 14 12 11 9 7 8 10 12 13 12 11 10 8 8 8 7 7 8 8 9 9 8 9 9 9 8 8 8 8 9 10 10 10 11 11 12 13 13 13 13 12 12 11
25 26 26 26 26 25 24 22 20 18 17 17 17 18 19 20 21 20 20 21 23 25 27 29 30 30 30 30 30 28 26 26 27 25 25 25 23 22 22 20 19 18 16 13 11 10 8 7 9 12 13 13 12 10 9 10 10 9 8 8 8 9 10 11 12 12 11 11 11 10 10 11 11 12 12 13 13 14 15 15 15 14 13 13 13
25 26 26 26 25 24 23 22 20 19 18 17 18 18 19 20 20 19 20 22 24 27 29 31 32 32 33 33 32 30 28 28 28 26 26 26 25 23 22 19 18 19 17 14 12 10 8 6 8 11 12 13 13 11 10 11 11 10 9 9 9 10 11 12 13 14 14 14 14 13 13 13 13 13 13 14 14 15 15 16 16 15 14 14 14
25 25 25 25 24 23 22 21 21 20 19 18 19 19 20 19 19 19 21 23 26 28 30 33 34 34 34 33 32 30 28 27 27 25 25 25 25 24 21 19 19 19 18 15 13 11 7 6 7 10 12 12 12 11 11 11 12 11 11 12 12 12 12 13 14 15 15 15 15 15 15 15 15 15 14 15 15 15 16 16 16 15 16 16 15
24 24 24 23 22 21 21 21 20 20 19 19 19 20 20 19 19 20 22 25 27 30 32 34 34 34 34 33 31 29 27 26 25 26 25 24 26 25 21 19 19 19 19 16 14 12 8 6 8 10 11 12 12 12 13 13 12 12 13 14 14 13 13 14 15 15 15 16 16 17 17 17 16 16 16 16 17 17 16 16 16 16 16 17 17
23 23 23 22 21 20 20 20 20 19 19 19 21 21 20 19 20 21 22 25 28 31 33 33 34 34 33 31 29 28 27 26 25 27 27 27 29 26 21 20 20 20 19 17 15 13 9 7 8 10 11 11 13 14 14 14 13 13 14 15 14 14 14 15 16 16 15 15 17 18 18 18 18 18 17 17 17 17 17 16 15 16 17 17 17
24 24 24 23 23 21 21 20 19 19 19 20 22 22 20 19 19 20 22 25 29 32 33 32 33 33 32 30 28 27 27 25 25 27 29 30 31 27 22 22 21 21 20 18 16 13 10 8 8 10 11 12 14 15 15 14 14 15 16 16 15 15 15 16 16 15 14 14 17 17 18 19 19 18 18 17 16 16 17 17 16 16 17 17 16
25 25 25 24 24 24 22 21 20 20 20 21 22 21 18 17 18 21 23 25 28 31 32 30 31 31 31 29 26 25 25 24 24 26 28 29 29 26 22 22 22 21 20 18 16 14 11 9 9 10 11 12 14 15 15 14 15 16 17 17 17 16 17 16 16 16 15 16 17 18 18 19 19 18 18 17 15 15 16 16 17 18 18 17 16
26 25 25 24 24 23 21 20 20 20 21 21 21 19 17 18 20 23 24 26 28 30 30 29 29 29 28 26 24 23 23 24 25 25 25 24 25 24 23 23 22 21 20 18 16 15 12 10 10 11 11 13 14 14 14 15 16 17 17 17 17 17 17 17 17 17 16 17 18 20 19 18 17 18 18 17 17 16 15 16 18 18 17 17 16
27 26 25 24 22 21 19 18 17 17 18 19 18 16 18 21 24 25 26 28 29 30 29 27 27 27 25 24 25 23 23 24 24 23 22 21 22 23 23 23 22 21 20 18 16 15 12 11 11 12 12 13 14 14 14 15 16 17 17 17 17 16 17 18 18 18 17 17 19 20 19 17 16 16 17 18 18 17 16 17 18 17 17 17 16
26 26 25 23 21 20 19 17 16 17 18 18 17 18 21 23 25 27 28 29 29 30 28 25 25 25 23 24 25 25 25 25 23 22 21 20 21 22 23 22 22 21 20 18 16 14 13 12 12 13 14 14 13 13 13 14 15 16 16 17 17 16 17 18 18 17 16 17 18 18 17 16 15 14 15 16 17 17 17 17 17 16 17 16 15
25 24 24 22 21 19 18 17 18 18 19 19 19 20 23 24 26 28 28 28 28 29 27 25 25 24 24 24 23 24 25 25 22 21 21 21 21 22 23 22 22 21 20 18 16 14 14 13 13 14 14 14 13 13 13 14 15 16 17 17 18 18 18 18 18 17 17 17 17 16 15 16 15 14 14 14 15 16 15 15 15 15 15 15 15
24 23 22 21 20 18 17 17 17 18 18 19 19 20 22 23 25 27 27 27 26 28 28 26 26 25 24 23 23 23 24 25 23 21 21 21 21 21 22 22 22 21 20 17 15 14 14 14 14 14 14 14 13 13 13 15 16 16 16 17 17 17 17 17 18 16 15 14 15 15 15 15 14 13 13 14 14 14 13 13 13 14 14 14 14
24 23 22 20 19 17 17 16 16 17 18 19 19 19 21 22 25 25 26 25 25 27 28 26 25 24 22 22 24 25 24 24 23 22 21 21 21 20 20 21 20 20 18 16 15 14 14 14 14 13 13 13 12 13 13 14 14 14 14 14 15 15 16 16 15 13 12 13 13 13 13 12 12 11 12 13 13 12 11 12 13 13 13 12 12
23 23 21 19 18 17 16 15 16 18 19 19 19 20 22 23 24 24 24 25 24 24 24 23 22 22 20 20 21 21 21 21 21 22 20 19 21 19 16 16 16 16 16 16 15 14 13 13 13 13 13 12 12 12 12 11 11 12 12 12 13 13 13 13 11 10 10 11 11 10 10 10 10 10 11 12 11 10 10 11 11 11 11 11 11
22 21 19 18 17 17 16 15 16 17 17 18 19 20 21 21 21 21 22 24 23 21 20 19 21 21 20 18 16 16 17 18 20 21 18 16 18 17 14 13 14 15 15 15 14 13 13 13 13 13 12 12 12 12 11 10 10 11 11 11 11 11 11 11 11 10 9 8 8 9 9 9 9 9 9 10 10 10 10 10 10 10 10 10 10
21 20 18 17 16 16 16 16 16 15 15 16 17 18 19 19 19 19 20 21 20 20 19 19 20 21 20 18 17 17 19 19 19 18 16 14 14 15 13 13 14 15 14 14 13 12 12 13 13 12 12 13 13 12 11 10 10 10 9 9 9 9 9 10 11 10 9 8 9 9 9 8 8 8 9 10 10 10 9 10 10 9 9 8 8
22 20 18 17 17 17 17 16 15 15 14 14 16 18 19 20 19 18 17 17 17 18 19 19 20 21 20 19 18 18 18 18 17 16 14 13 13 14 14 13 14 14 13 12 11 10 11 12 12 12 12 13 14 13 12 11 10 10 9 8 8 7 7 8 9 9 8 9 9 9 8 8 8 9 10 11 10 9 9 9 9 8 7 6 5
23 22 20 19 19 18 16 15 15 16 15 16 18 21 23 23 21 19 16 15 16 18 19 19 20 21 20 18 17 17 16 16 17 15 12 12 13 14 13 13 14 13 12 11 10 10 11 12 12 12 13 14 14 13 11 11 11 10 9 8 8 8 8 8 8 7 7 8 8 9 9 9 9 9 10 9 9 8 8 8 7 6 5 4 3
24 22 22 20 19 17 15 14 14 16 17 19 21 21 22 21 20 19 17 16 17 19 19 19 21 22 20 18 17 16 16 17 17 14 12 12 12 12 13 15 14 12 11 10 10 11 12 13 13 13 13 13 13 12 11 11 12 12 11 10 10 10 10 9 8 7 8 8 8 8 9 9 10 10 9 8 8 8 7 6 5 5 4 3 3
23 22 20 19 18 16 15 13 13 14 16 20 21 19 18 17 17 17 16 15 17 19 20 19 21 22 19 18 17 17 17 18 17 15 14 13 12 12 15 16 15 12 11 10 10 11 12 13 13 13 13 13 13 12 12 12 13 12 12 12 12 11 11 10 10 9 8 9 8 8 9 10 10 9 9 8 8 7 7 6 5 5 4 4 3
24 22 21 19 18 18 18 16 15 14 14 16 17 17 16 14 14 15 14 14 14 16 18 19 20 20 18 16 16 17 17 17 17 15 15 14 13 13 15 16 16 14 12 11 12 12 13 13 13 13 13 13 13 12 12 13 13 13 13 13 13 12 12 11 11 10 9 10 10 10 11 11 11 10 10 9 8 7 7 7 6 6 5 5 5
24 23 21 20 20 20 20 19 18 16 16 16 16 16 15 11 10 12 12 12 11 11 16 19 19 18 15 15 16 17 18 18 18 16 15 16 15 14 14 15 15 14 13 12 13 13 14 14 14 13 13 13 12 12 12 13 13 13 13 14 14 13 12 11 12 11 11 11 12 12 12 12 11 11 11 11 9 8 9 8 8 7 7 6 6
21 22 21 20 20 20 20 19 18 18 17 18 18 18 16 11 7 9 10 10 9 10 14 17 18 17 16 17 17 17 18 19 18 18 18 17 16 15 14 16 15 14 14 14 14 15 15 16 15 14 13 12 12 12 12 12 12 12 13 13 13 13 13 13 13 13 13 13 13 13 12 12 12 12 12 12 11 10 10 10 10 9 8 8 8
19 20 20 20 19 20 20 19 18 18 19 20 19 19 20 16 11 9 10 10 10 11 13 14 14 14 15 17 18 17 17 17 17 18 19 18 16 15 15 16 16 16 15 15 16 16 17 17 16 14 12 12 12 13 12 11 12 13 13 13 13 14 14 15 15 15 15 14 14 15 14 13 12 13 13 13 12 11 11 12 11 11 10 10 10
19 20 21 21 20 20 20 20 19 19 20 21 20 20 20 19 16 16 15 15 15 15 15 14 14 14 13 14 16 16 16 16 16 17 18 17 17 16 17 18 18 17 17 17 17 17 18 18 16 14 13 13 13 13 12 12 13 13 14 14 15 15 16 16 16 16 16 15 15 15 15 14 13 13 14 14 13 12 12 13 13 13 12 12 12
21 22 22 22 22 21 20 20 20 21 21 21 20 20 20 19 18 19 20 21 21 20 18 17 16 16 16 16 16 15 16 16 16 17 17 18 18 18 17 18 18 18 18 18 19 19 19 19 17 16 15 15 14 13 13 14 14 14 15 15 16 16 16 17 17 17 16 16 15 15 15 14 14 15 15 14 14 14 14 15 15 15 14 13 13
22 23 23 23 22 21 20 20 20 22 23 23 21 20 20 20 18 19 21 22 23 24 22 20 18 17 18 18 18 16 16 17 17 17 17 18 18 17 17 18 18 19 18 18 19 20 21 20 18 17 16 15 15 14 15 15 14 15 15 16 16 16 17 17 17 17 16 16 16 16 15 15 15 16 16 15 15 15 16 16 16 16 16 15 15
22 21 21 21 21 20 19 20 21 22 23 24 23 22 21 21 19 18 20 21 22 23 24 22 20 18 18 18 18 18 18 18 18 18 18 19 18 18 18 18 19 19 19 19 19 20 21 20 19 18 17 17 16 16 15 15 16 16 17 17 17 17 18 18 17 17 17 16 17 17 17 17 17 17 16 16 16 17 17 17 17 17 16 16 16
21 20 19 20 21 21 20 21 21 22 22 22 22 23 23 23 21 19 20 21 21 23 25 25 23 20 18 17 17 18 19 19 19 20 21 21 20 20 19 20 21 21 20 20 20 21 20 19 19 19 19 18 17 17 16 17 17 18 18 18 18 18 18 19 18 17 17 17 18 18 18 18 18 18 17 17 18 18 18 18 18 17 16 16 17
Wind_Direction
289 294 302 309 312 313 313 308 304 305 311 315 316 316 317 317 315 314 313 312 313 317 321 323 326 330 333 336 338 339 339 340 342 344 343 345 349 350 350 347 347 349 349 348 346 346 346 346 346 345 346 353 1 5 10 7 6 9 9 9 12 16 16 13 12 12 6 5 16 23 16 355 331 306 302 305 313 326 341 360 360 356 353 358 13
291 299 304 308 309 310 311 309 304 302 308 313 313 313 312 311 309 308 308 309 310 314 318 322 325 328 331 334 337 337 338 341 343 344 344 345 349 351 351 348 346 348 350 348 346 345 345 347 347 348 348 355 7 10 12 10 8 9 10 12 14 15 16 18 16 16 10 8 13 10 352 335 315 304 306 309 313 322 338 355 355 352 349 356 10
297 304 305 306 307 307 310 310 305 303 307 311 310 307 305 303 302 302 304 306 307 311 316 319 322 325 328 332 335 336 338 341 343 344 343 344 348 351 351 348 344 347 350 348 345 344 344 347 348 348 348 358 11 13 13 11 10 12 13 15 17 17 18 20 20 21 18 14 12 360 340 324 315 316 315 317 318 326 337 348 351 353 355 1 9
305 306 303 304 305 306 308 309 309 308 310 310 305 299 297 296 296 297 299 301 303 308 312 315 318 322 326 329 331 333 337 340 342 342 341 342 346 349 350 348 344 345 350 347 345 343 344 346 348 347 348 2 15 16 16 13 13 14 15 16 18 19 19 19 24 27 25 20 11 356 342 333 330 328 321 320 322 327 332 338 346 351 359 8 11
308 305 304 304 303 304 308 312 314 315 313 309 300 293 290 290 291 293 295 297 300 304 306 310 314 319 321 324 327 330 335 337 339 339 339 340 344 347 348 348 344 344 348 347 345 343 343 345 346 345 350 4 13 15 18 18 18 17 16 17 16 17 16 15 22 29 32 27 17 3 357 353 344 333 325 322 323 325 325 329 339 349 360 7 8
305 306 306 305 303 304 308 314 317 318 317 309 298 291 287 287 288 290 291 293 296 298 301 306 309 313 316 319 323 327 332 334 336 336 335 336 340 344 346 348 344 342 347 346 346 345 342 343 344 344 351 3 10 11 15 19 21 20 19 19 18 16 14 15 18 24 32 31 23 14 10 3 349 336 328 326 325 322 320 326 335 347 357 360 360
306 307 307 306 304 307 312 316 319 320 318 309 297 289 285 284 285 285 286 288 290 294 298 301 304 307 310 315 318 322 328 331 332 332 331 332 336 340 343 348 344 341 345 345 347 348 344 341 341 343 351 1 7 10 13 19 22 23 23 23 21 19 17 17 16 19 26 28 27 26 25 15 358 341 333 329 328 325 325 330 336 343 350 351 349
308 308 308 308 308 311 314 317 320 322 318 307 295 286 284 283 281 280 280 282 286 291 296 298 300 303 306 310 313 317 322 325 328 328 327 328 332 336 340 346 344 339 342 344 347 350 346 340 338 341 348 357 4 11 15 22 24 26 28 29 28 27 24 20 17 16 16 18 27 38 42 33 12 351 339 331 329 331 332 333 334 339 342 341 339
306 307 308 309 310 311 313 315 318 320 314 302 291 284 281 280 278 276 275 278 283 290 293 294 296 299 301 304 307 311 315 319 323 323 323 324 327 331 336 342 343 336 338 343 346 350 348 340 335 336 341 348 358 12 20 29 31 30 30 34 41 41 33 26 20 14 8 11 29 47 50 40 20 359 342 332 327 328 330 330 330 332 331 330 332
304 305 306 307 308 309 311 312 313 313 306 295 288 283 280 276 274 273 272 276 282 287 289 291 292 293 294 297 301 304 308 311 315 318 319 320 322 327 332 338 341 333 333 342 344 347 348 340 332 330 333 340 350 2 20 34 35 31 26 29 42 48 42 31 21 7 355 357 40 50 40 29 11 351 335 321 315 317 319 320 321 321 321 322 319
302 303 304 306 306 307 307 306 306 303 295 289 285 283 281 277 271 269 270 275 280 284 286 287 287 285 285 288 295 298 301 302 304 311 315 317 317 322 328 333 339 330 327 340 343 344 344 339 329 324 327 333 341 342 2 40 40 30 23 25 37 49 50 41 23 360 337 327 51 50 33 16 354 331 318 306 302 307 309 311 312 311 312 311 307
298 300 302 304 304 304 302 301 299 295 290 289 288 284 281 277 272 268 269 272 276 280 281 282 282 282 281 282 289 292 293 291 291 305 312 312 312 317 323 328 335 327 321 336 342 342 340 335 326 318 320 326 330 322 314 38 45 27 19 31 41 46 52 51 37 15 7 65 52 30 18 6 345 323 311 305 302 304 305 306 305 306 306 305 303
297 299 300 301 301 300 300 299 296 293 292 289 287 285 280 276 271 269 269 270 274 275 276 277 278 281 281 281 286 286 285 284 287 304 309 308 307 312 318 323 330 324 316 331 340 341 336 329 323 316 316 318 320 312 298 359 44 21 14 30 32 31 31 35 34 21 17 26 27 16 1 347 328 313 304 301 300 300 299 299 299 301 301 301 302
296 299 301 302 302 301 299 299 297 294 294 290 285 284 281 276 270 270 270 270 272 273 274 274 276 280 279 280 286 285 282 285 295 304 303 303 302 306 313 318 325 322 312 323 336 340 335 325 319 314 313 314 310 299 285 322 47 353 9 27 11 11 13 18 26 22 18 17 14 1 344 328 309 295 289 289 291 294 296 298 298 298 296 296 298
298 302 305 306 304 301 300 298 297 293 291 288 284 281 280 277 273 271 271 271 273 273 274 275 278 281 281 284 289 287 285 290 297 298 295 296 296 301 309 313 321 320 309 315 331 339 335 323 313 309 309 307 297 284 274 269 212 276 10 30 3 356 356 2 14 19 15 10 1 345 329 314 301 292 287 287 292 296 299 301 300 299 297 296 296
301 305 307 306 304 301 299 297 295 289 286 285 284 281 277 277 275 273 272 272 272 273 275 276 280 283 283 284 286 285 286 290 293 292 290 290 291 298 305 309 316 317 307 308 324 336 334 321 308 304 303 298 285 277 273 253 235 243 54 39 351 339 340 348 2 12 6 356 347 333 323 315 308 301 297 294 295 297 300 303 304 304 302 300 296
302 304 305 305 303 300 298 295 292 287 283 282 282 279 276 275 274 273 271 270 271 273 274 275 277 279 279 278 278 279 282 287 290 290 290 289 289 296 302 305 311 312 304 303 318 330 331 320 305 298 298 291 278 275 276 261 239 227 181 75 311 313 322 331 340 356 356 347 338 329 324 320 317 311 305 301 298 299 302 305 307 307 304 301 297
299 301 302 302 300 298 296 293 290 286 282 280 278 276 275 274 273 272 271 270 271 272 272 273 274 276 276 277 278 279 282 286 289 289 289 290 288 293 300 301 306 308 301 301 313 325 326 316 302 294 294 288 274 271 274 266 244 223 214 229 266 291 305 311 316 333 345 347 345 340 334 329 324 315 308 304 302 303 304 305 306 306 304 301 298
297 299 300 299 298 295 293 290 287 284 279 277 275 274 275 275 275 275 273 273 273 273 272 273 274 274 276 277 278 279 281 283 285 286 286 289 286 289 297 297 301 302 297 298 308 321 322 312 299 291 289 285 273 266 260 259 251 232 224 236 252 267 285 295 300 311 324 333 333 333 330 328 321 312 305 301 301 303 305 306 305 304 301 300 298
295 297 297 297 295 292 289 286 283 279 275 274 274 275 276 277 277 276 275 275 275 275 275 274 274 274 274 274 274 275 277 278 281 282 282 283 282 287 294 293 295 297 292 292 304 316 318 308 296 288 285 280 272 262 246 243 246 236 229 234 245 255 270 280 280 284 293 294 295 305 312 313 310 305 301 299 299 302 305 307 307 304 300 296 295
293 295 296 295 294 290 287 285 280 275 271 271 272 274 276 278 278 278 278 279 279 279 277 276 275 274 274 273 272 272 274 277 281 282 281 278 278 285 289 288 290 291 287 286 296 308 311 305 294 286 282 275 268 260 244 236 237 232 228 233 241 251 261 267 267 266 268 273 278 288 297 301 304 304 302 299 298 299 302 305 306 304 300 295 291
290 292 294 294 293 290 287 284 279 273 270 269 270 271 274 278 279 280 281 281 281 279 277 276 274 273 273 272 271 270 274 279 283 285 282 277 275 281 284 283 286 286 282 282 290 297 299 298 289 283 279 273 265 257 246 236 235 229 224 229 238 248 255 257 259 260 259 260 264 271 280 288 294 299 300 299 297 297 300 303 304 303 301 296 292
288 290 292 293 293 290 288 284 278 275 272 270 269 269 271 275 277 279 279 279 278 276 274 273 272 271 271 270 270 272 276 279 283 283 280 275 272 276 280 279 281 281 279 279 285 291 291 290 281 277 275 272 266 257 248 240 237 232 226 226 231 242 250 253 256 259 259 258 261 264 271 278 283 289 293 295 296 297 300 303 304 303 301 297 294
287 289 290 291 291 290 288 285 280 276 273 270 268 266 268 271 275 277 279 278 277 275 274 273 272 271 271 270 271 273 276 278 279 278 276 272 269 272 275 275 276 276 276 278 282 286 287 282 272 271 270 268 266 259 250 244 241 237 234 231 232 239 247 254 258 261 262 262 263 265 269 272 279 284 286 289 292 295 298 300 302 301 300 297 294
287 288 289 289 289 289 287 285 282 277 274 270 267 266 267 270 275 278 281 281 279 278 276 274 273 273 273 273 274 276 276 274 274 274 271 266 266 270 270 270 272 272 273 277 280 281 280 272 262 264 264 263 264 260 253 247 243 239 238 237 237 241 247 254 259 262 263 263 265 266 268 270 275 281 283 284 288 291 294 296 298 298 297 295 294
286 287 288 287 287 287 285 284 282 279 277 273 269 268 269 272 275 278 282 283 281 278 275 274 274 274 275 278 280 277 271 269 269 268 266 264 265 268 266 264 266 267 270 274 276 277 274 263 254 256 258 258 259 258 254 249 244 240 239 241 241 243 248 253 256 260 264 265 266 266 267 270 275 280 282 282 284 288 291 293 294 294 293 292 292
284 284 283 283 283 282 282 282 281 281 279 275 271 268 269 271 273 278 282 281 279 276 276 276 278 279 281 284 283 275 268 265 263 261 261 264 266 267 262 259 260 261 266 271 274 275 270 256 247 247 250 253 254 254 253 251 247 243 242 244 244 245 249 255 257 260 267 270 267 267 269 273 275 279 282 284 284 284 286 290 292 292 292 290 290
282 281 281 281 281 280 280 280 279 279 277 273 269 269 270 270 275 281 282 280 278 276 278 281 283 284 285 284 279 274 271 266 261 260 261 263 265 266 259 253 255 256 261 268 271 271 265 252 243 244 249 253 253 254 255 253 250 247 246 245 246 246 249 257 259 258 263 267 267 271 276 277 276 276 281 285 287 284 283 287 292 294 293 290 288
283 284 284 284 284 284 282 281 280 279 277 274 273 274 273 273 281 286 285 283 279 277 281 284 285 286 286 280 272 269 267 262 263 263 262 262 264 262 253 247 250 253 259 264 267 267 259 249 247 250 255 256 257 260 261 257 253 250 248 248 249 249 250 255 257 255 258 262 267 276 281 283 279 275 278 284 290 290 284 283 290 293 292 289 286
284 285 285 285 286 286 286 285 285 284 281 279 278 277 274 276 284 287 286 285 281 279 281 283 285 287 287 280 270 266 260 257 264 264 260 260 260 255 246 243 247 252 257 260 262 262 255 249 253 257 259 261 263 264 263 258 255 253 253 253 253 252 252 252 252 253 255 261 269 276 282 286 283 276 276 282 290 293 286 285 290 291 289 287 283
284 285 285 285 285 285 286 286 285 283 281 280 278 273 272 277 282 284 283 281 280 279 279 282 285 286 287 283 274 268 259 258 264 263 257 254 253 249 243 241 245 250 254 255 257 256 251 252 254 258 261 262 263 263 261 259 259 259 259 258 256 255 252 249 250 253 255 261 269 276 283 288 286 281 278 280 287 290 288 288 291 290 288 285 280
284 284 285 286 286 285 285 283 279 277 275 275 272 271 274 279 283 284 282 279 278 279 279 280 282 284 284 282 275 267 261 259 263 265 259 252 251 248 243 242 244 248 250 252 252 250 249 251 253 257 262 262 261 260 260 261 261 261 260 258 256 253 250 249 252 255 257 262 269 277 284 286 286 283 279 279 284 287 287 288 289 288 287 283 277
284 284 285 286 287 286 287 283 279 278 277 274 273 275 279 283 286 286 285 281 277 278 279 277 279 280 277 278 277 270 262 256 260 264 258 254 253 248 244 243 243 245 248 249 247 245 248 252 256 261 263 263 262 264 263 262 260 259 258 258 256 254 252 251 254 259 263 266 271 276 279 280 280 278 278 279 281 283 285 286 287 288 286 280 274
285 286 286 288 289 290 289 284 283 283 281 277 276 277 280 282 283 285 285 282 276 275 277 276 276 274 270 274 277 275 266 255 255 258 254 253 252 248 246 243 244 245 244 243 240 241 249 254 260 264 264 265 269 271 270 266 263 262 262 263 262 258 255 256 259 264 267 267 269 271 273 275 275 275 276 277 277 280 282 285 288 288 286 280 271
286 287 288 291 293 293 291 288 287 285 282 280 279 279 279 278 278 280 281 280 276 273 272 272 272 269 265 269 275 275 267 256 252 253 251 250 248 247 248 245 243 241 235 233 233 238 248 254 259 261 263 268 275 280 278 273 269 267 267 264 260 256 255 259 261 264 270 269 266 267 268 268 270 272 272 274 275 277 280 287 291 287 283 280 270
285 287 290 293 294 294 294 290 285 283 284 283 281 278 276 276 277 278 279 278 273 269 267 267 268 266 263 269 274 270 262 255 254 253 251 250 247 244 244 240 231 225 223 224 229 238 248 253 257 259 265 272 278 280 279 275 269 264 259 253 250 252 256 258 258 264 274 271 259 259 265 267 269 269 271 274 274 275 280 290 293 287 281 277 270
284 287 291 294 294 294 292 284 279 281 284 283 280 277 278 281 281 279 275 271 267 264 261 261 263 262 261 266 267 262 261 259 256 254 249 244 242 237 229 221 212 211 217 223 231 241 248 254 258 262 270 276 277 273 271 268 260 254 250 246 247 253 257 256 255 262 272 265 254 260 267 268 268 267 271 273 273 275 282 289 291 291 286 277 267
284 287 290 291 290 288 286 282 278 277 278 280 280 279 283 286 284 278 270 262 260 259 254 252 255 257 257 259 259 261 263 261 257 252 240 230 233 230 218 212 210 212 220 226 233 241 249 254 258 265 274 279 275 269 269 265 254 247 244 241 242 249 255 254 252 255 262 263 261 264 266 266 267 268 269 271 273 275 280 286 291 296 295 280 264
285 288 289 289 287 286 286 284 278 270 269 274 280 284 289 289 285 280 273 262 256 255 253 252 252 251 252 254 257 258 256 255 254 245 231 224 228 224 214 216 219 218 221 228 236 243 251 255 257 265 274 277 273 269 270 263 250 242 238 234 231 238 247 249 248 248 255 261 263 265 268 271 270 269 270 272 273 271 277 286 292 299 302 293 274
286 289 292 293 294 294 293 289 280 271 266 269 279 286 288 286 283 279 273 266 260 255 255 253 249 248 250 253 256 252 244 242 242 235 227 225 226 219 214 219 219 216 223 232 240 248 254 257 258 264 271 271 268 267 267 257 245 240 236 235 234 238 246 246 244 244 252 261 265 268 272 275 271 269 272 273 270 268 275 283 290 300 308 310 292
288 293 299 303 305 305 302 296 285 275 269 270 280 289 290 285 284 279 269 265 261 252 251 250 249 251 251 251 247 238 230 229 229 226 225 226 223 211 208 215 212 213 227 236 241 246 252 256 257 262 269 268 266 267 265 255 248 242 239 242 242 244 249 248 244 248 257 261 262 267 273 273 271 270 270 269 263 263 265 268 281 295 308 321 295
293 298 304 306 303 300 297 294 286 277 271 273 280 289 292 293 298 289 268 265 262 247 243 248 252 252 247 241 232 222 222 224 222 218 219 223 217 200 201 210 212 219 232 239 243 247 251 252 251 256 263 263 261 262 262 257 251 247 245 248 248 247 248 245 245 253 260 258 255 260 267 265 264 264 262 260 257 254 251 256 275 287 299 315 298
296 299 301 299 295 292 290 288 286 278 269 270 274 278 285 295 309 301 273 270 271 247 237 242 248 248 240 234 226 222 223 223 221 217 215 216 210 201 205 213 218 228 238 241 246 250 251 247 243 249 256 254 251 254 260 259 254 251 250 252 251 248 247 245 247 252 252 250 251 252 254 254 254 254 252 250 248 246 245 254 270 278 283 295 293
296 297 297 294 291 290 289 287 285 278 267 261 262 267 278 293 310 307 283 275 279 259 242 239 242 245 239 232 228 226 221 216 215 215 214 212 207 204 212 221 227 235 240 240 244 249 250 242 238 247 253 248 245 251 257 258 254 251 250 249 249 248 248 246 248 250 248 247 249 249 249 249 249 249 247 244 243 245 248 254 264 271 274 278 279
294 294 293 291 287 285 285 284 280 275 267 258 255 257 267 279 299 310 300 284 274 261 248 240 241 245 238 229 229 229 223 215 210 211 215 214 210 209 218 228 233 235 238 239 242 246 245 238 239 250 253 246 244 248 251 254 251 247 246 248 249 250 248 246 249 252 251 247 245 245 244 244 245 246 245 243 242 243 248 253 259 265 268 270 273
289 290 290 287 283 280 278 277 273 267 262 258 256 256 259 262 266 279 291 285 267 256 251 245 244 248 238 227 227 227 226 224 217 216 219 218 217 218 222 231 235 236 238 240 242 245 242 239 244 255 255 246 244 247 248 248 244 242 245 248 250 251 250 250 252 253 251 246 243 242 239 236 239 244 245 246 245 244 248 251 253 258 263 266 270
284 283 284 284 283 280 277 274 269 263 258 258 260 261 261 260 257 261 271 276 272 265 259 254 251 253 247 239 236 229 225 228 226 223 223 222 223 224 226 232 237 238 238 240 243 245 243 242 249 257 254 246 245 247 247 244 242 243 246 249 251 253 254 254 255 253 249 244 241 242 240 236 238 243 246 247 247 248 251 252 252 255 260 264 267
279 278 279 282 285 285 280 275 272 267 262 261 262 265 266 264 259 260 268 275 276 273 267 262 258 254 249 248 249 239 228 227 227 226 228 227 227 226 226 230 234 236 237 240 244 246 244 244 249 254 251 248 247 247 245 246 247 248 251 252 253 255 256 255 254 252 249 244 241 242 242 241 242 246 248 249 251 252 254 254 253 255 261 265 265
279 280 282 283 284 284 281 277 275 274 273 271 267 264 265 264 260 260 268 275 277 275 270 264 259 256 252 249 250 246 238 235 233 231 231 232 230 227 225 226 230 233 237 241 245 246 244 243 247 250 249 249 247 246 247 249 250 251 253 255 256 257 258 255 251 249 246 244 243 243 244 244 245 248 250 253 255 256 256 255 255 257 263 266 267
283 286 286 283 282 280 278 276 275 277 280 279 273 265 261 261 259 258 263 271 274 273 271 267 261 257 256 253 250 246 241 243 245 239 235 235 233 228 224 224 227 232 238 243 247 247 246 246 249 250 250 250 249 249 249 250 251 253 255 257 259 259 258 254 248 244 242 241 240 241 240 241 243 246 249 252 255 257 258 258 258 260 264 267 268
288 290 288 282 278 275 273 274 275 276 278 278 274 267 262 262 260 256 258 264 268 270 270 269 266 261 258 253 248 243 240 244 248 242 236 236 235 232 228 226 228 232 237 242 246 247 247 249 251 252 252 253 254 253 251 252 255 257 257 258 259 259 257 254 248 245 244 242 241 240 240 241 245 248 248 251 255 257 258 259 259 261 264 266 267
Height
5871 5871 5872 5872 5871 5870 5868 5867 5866 5865 5865 5864 5863 5863 5862 5862 5863 5863 5863 5864 5863 5863 5862 5862 5861 5861 5861 5860 5860 5859 5858 5857 5856 5854 5854 5853 5853 5852 5852 5851 5851 5850 5849 5848 5847 5846 5846 5845 5844 5843 5843 5842 5841 5840 5839 5839 5839 5839 5839 5839 5839 5839 5838 5838 5837 5837 5837 5837 5836 5836 5836 5837 5837 5837 5837 5837 5837 5837 5837 5836 5836 5836 5836 5836 5836
5870 5870 5870 5870 5869 5868 5866 5865 5865 5864 5863 5863 5862 5862 5862 5862 5862 5862 5863 5863 5862 5862 5861 5861 5860 5860 5860 5860 5859 5859 5858 5856 5855 5854 5853 5853 5853 5852 5852 5851 5851 5850 5849 5848 5847 5846 5846 5845 5844 5843 5842 5841 5841 5840 5840 5839 5839 5839 5839 5839 5839 5839 5839 5839 5838 5838 5838 5837 5836 5837 5837 5837 5837 5838 5838 5838 5838 5837 5837 5837 5836 5836 5836 5836 5835
5869 5869 5869 5868 5868 5866 5865 5864 5863 5863 5862 5862 5861 5861 5861 5862 5862 5862 5862 5862 5861 5861 5860 5860 5860 5860 5859 5859 5859 5858 5857 5856 5855 5854 5853 5853 5853 5852 5852 5851 5851 5850 5849 5848 5847 5847 5846 5845 5844 5843 5842 5841 5841 5840 5840 5840 5840 5840 5839 5839 5839 5839 5839 5839 5839 5838 5838 5837 5837 5838 5838 5838 5838 5838 5838 5838 5838 5838 5837 5837 5837 5837 5836 5836 5836
5867 5867 5867 5866 5866 5865 5864 5863 5862 5862 5861 5861 5861 5861 5861 5861 5861 5861 5861 5861 5860 5860 5859 5859 5859 5859 5859 5858 5858 5858 5857 5856 5855 5854 5853 5853 5853 5852 5852 5851 5851 5850 5850 5849 5848 5847 5846 5845 5844 5843 5842 5842 5841 5840 5840 5840 5840 5840 5839 5839 5839 5839 5839 5839 5839 5838 5838 5838 5838 5838 5838 5838 5838 5838 5838 5838 5838 5838 5838 5838 5837 5837 5837 5837 5837
5865 5865 5865 5865 5864 5863 5863 5862 5861 5860 5860 5860 5860 5860 5860 5860 5860 5860 5860 5860 5859 5859 5858 5858 5858 5858 5858 5858 5858 5857 5857 5855 5854 5854 5853 5853 5853 5852 5852 5851 5851 5850 5850 5849 5848 5847 5846 5845 5844 5844 5843 5842 5841 5841 5840 5840 5840 5840 5840 5839 5839 5839 5839 5839 5839 5839 5839 5839 5839 5839 5839 5839 5839 5839 5839 5839 5838 5838 5838 5838 5838 5837 5837 5837 5837
5863 5863 5863 5863 5862 5862 5861 5860 5860 5859 5859 5859 5859 5859 5859 5859 5859 5859 5859 5859 5858 5858 5857 5857 5857 5857 5857 5857 5857 5857 5856 5855 5854 5854 5853 5853 5853 5853 5852 5851 5851 5850 5850 5849 5848 5847 5846 5846 5845 5844 5843 5842 5841 5841 5841 5840 5840 5840 5840 5840 5840 5840 5840 5839 5839 5839 5839 5839 5839 5839 5839 5839 5839 5839 5839 5839 5839 5839 5839 5838 5838 5838 5838 5838 5838
5861 5861 5861 5861 5860 5860 5859 5859 5858 5858 5858 5858 5858 5858 5858 5858 5858 5858 5858 5857 5857 5857 5856 5856 5856 5856 5856 5856 5856 5856 5856 5855 5854 5854 5853 5853 5853 5852 5852 5851 5850 5850 5849 5849 5848 5847 5847 5846 5845 5844 5843 5842 5842 5842 5841 5841 5840 5840 5840 5840 5840 5840 5840 5840 5839 5839 5839 5839 5839 5839 5839 5839 5839 5839 5839 5839 5839 5839 5839 5839 5839 5838 5838 5838 5838
5859 5859 5859 5859 5859 5858 5857 5857 5856 5856 5857 5857 5857 5857 5857 5857 5857 5857 5856 5856 5856 5856 5856 5855 5856 5856 5855 5855 5855 5855 5855 5855 5854 5853 5853 5853 5853 5852 5852 5851 5850 5850 5849 5848 5847 5847 5847 5846 5845 5844 5843 5843 5842 5842 5842 5841 5841 5841 5841 5841 5841 5840 5840 5840 5840 5839 5839 5839 5839 5839 5839 5839 5839 5840 5840 5840 5839 5839 5839 5839 5839 5839 5838 5838 5838
5858 5858 5858 5858 5857 5857 5856 5856 5855 5855 5855 5856 5856 5856 5856 5856 5855 5855 5855 5855 5855 5855 5855 5855 5855 5855 5854 5855 5855 5854 5854 5854 5854 5853 5852 5852 5852 5852 5852 5851 5850 5850 5849 5848 5847 5847 5847 5846 5845 5844 5843 5843 5843 5843 5842 5842 5842 5842 5841 5841 5841 5840 5840 5840 5839 5839 5839 5839 5839 5839 5839 5839 5839 5839 5839 5839 5839 5839 5839 5839 5839 5839 5838 5838 5838
5857 5857 5856 5856 5856 5855 5855 5854 5854 5854 5854 5854 5855 5855 5855 5854 5854 5854 5854 5854 5854 5854 5854 5854 5854 5854 5853 5854 5853 5853 5853 5853 5853 5852 5852 5852 5852 5852 5852 5851 5850 5850 5849 5848 5847 5847 5846 5846 5845 5844 5844 5843 5843 5843 5842 5842 5842 5842 5842 5841 5841 5840 5840 5840 5839 5839 5839 5839 5839 5839 5839 5839 5839 5839 5839 5839 5839 5839 5839 5839 5838 5838 5838 5838 5838
5855 5855 5855 5854 5854 5854 5853 5853 5853 5853 5853 5853 5854 5854 5853 5853 5853 5853 5853 5853 5853 5853 5853 5853 5853 5852 5852 5852 5852 5852 5852 5852 5852 5851 5851 5851 5851 5851 5851 5851 5850 5849 5849 5848 5847 5846 5846 5846 5845 5844 5844 5843 5843 5843 5842 5842 5842 5842 5842 5841 5841 5841 5840 5840 5840 5839 5839 5839 5839 5839 5839 5839 5839 5839 5839 5839 5839 5838 5838 5838 5838 5838 5838 5838 5838
5854 5854 5853 5853 5853 5852 5852 5852 5851 5851 5852 5852 5852 5852 5852 5852 5852 5852 5852 5852 5852 5851 5851 5851 5851 5851 5851 5851 5850 5850 5850 5850 5851 5850 5850 5850 5850 5850 5850 5850 5850 5849 5849 5848 5847 5846 5846 5845 5845 5844 5844 5844 5843 5842 5842 5842 5842 5842 5842 5842 5842 5841 5841 5841 5840 5840 5839 5839 5839 5839 5839 5839 5839 5839 5839 5839 5838 5838 5838 5838 5838 5838 5838 5838 5838
5853 5853 5852 5852 5851 5851 5851 5850 5850 5850 5850 5851 5851 5851 5851 5850 5850 5850 5850 5850 5850 5850 5850 5850 5849 5849 5849 5849 5849 5849 5848 5849 5849 5849 5849 5849 5849 5849 5849 5849 5849 5849 5848 5848 5847 5846 5845 5844 5844 5844 5844 5844 5843 5842 5841 5841 5841 5841 5841 5841 5842 5841 5841 5841 5840 5840 5840 5840 5840 5839 5839 5839 5839 5839 5839 5839 5839 5838 5838 5838 5838 5838 5838 5838 5838
5852 5851 5851 5850 5850 5850 5849 5849 5849 5849 5849 5849 5849 5849 5849 5849 5849 5849 5849 5849 5848 5848 5848 5848 5848 5848 5848 5847 5847 5847 5847 5848 5848 5848 5848 5847 5847 5848 5848 5848 5849 5848 5848 5848 5847 5846 5845 5844 5843 5843 5844 5844 5843 5842 5841 5841 5841 5841 5841 5841 5842 5842 5841 5841 5841 5840 5840 5840 5840 5840 5840 5839 5839 5839 5839 5839 5839 5838 5838 5838 5838 5838 5838 5838 5838
5850 5850 5849 5849 5849 5848 5848 5847 5847 5847 5847 5847 5847 5847 5847 5847 5847 5847 5847 5847 5847 5847 5847 5847 5847 5846 5846 5846 5846 5846 5846 5847 5847 5847 5846 5846 5846 5846 5847 5847 5848 5848 5848 5848 5847 5846 5845 5843 5842 5843 5844 5844 5843 5841 5841 5841 5841 5841 5841 5841 5841 5842 5842 5841 5841 5841 5840 5840 5840 5840 5840 5840 5839 5839 5839 5839 5839 5839 5838 5838 5838 5838 5838 5837 5837
5848 5848 5848 5847 5847 5847 5846 5846 5846 5846 5846 5846 5846 5846 5846 5845 5845 5845 5845 5845 5845 5845 5845 5845 5845 5845 5845 5845 5845 5845 5845 5845 5845 5845 5845 5844 5844 5844 5845 5846 5847 5847 5847 5847 5847 5846 5845 5843 5842 5842 5843 5844 5842 5841 5841 5841 5841 5841 5841 5841 5841 5842 5842 5842 5841 5841 5841 5840 5840 5840 5840 5840 5840 5840 5840 5839 5839 5839 5838 5838 5838 5837 5837 5837 5837
5846 5846 5846 5846 5845 5845 5845 5844 5845 5845 5845 5845 5844 5844 5844 5844 5843 5843 5843 5843 5843 5843 5843 5843 5843 5843 5843 5843 5844 5844 5844 5844 5844 5844 5844 5843 5842 5842 5843 5844 5845 5846 5846 5846 5846 5846 5845 5843 5841 5841 5843 5844 5842 5841 5841 5841 5840 5841 5841 5841 5841 5842 5842 5842 5842 5841 5841 5841 5840 5840 5840 5840 5840 5840 5840 5840 5839 5839 5839 5838 5838 5837 5837 5836 5836
5845 5844 5844 5844 5844 5843 5843 5843 5843 5843 5843 5843 5843 5842 5842 5842 5842 5842 5842 5842 5842 5842 5842 5841 5841 5841 5841 5841 5842 5842 5842 5842 5842 5842 5843 5842 5841 5841 5842 5842 5844 5845 5845 5845 5845 5846 5845 5843 5841 5840 5842 5843 5842 5841 5840 5840 5840 5841 5841 5841 5841 5841 5842 5842 5841 5841 5841 5841 5840 5840 5840 5840 5840 5839 5839 5839 5839 5839 5839 5839 5838 5837 5837 5836 5836
5843 5843 5843 5842 5842 5842 5842 5842 5842 5842 5842 5841 5841 5840 5840 5840 5840 5840 5840 5840 5840 5840 5840 5839 5839 5839 5839 5840 5840 5840 5840 5840 5840 5840 5841 5841 5840 5840 5840 5841 5842 5843 5844 5844 5844 5845 5844 5843 5841 5840 5841 5842 5842 5841 5841 5840 5840 5840 5840 5840 5840 5841 5841 5841 5841 5841 5841 5840 5840 5840 5840 5840 5839 5839 5839 5839 5839 5839 5839 5838 5838 5837 5836 5836 5835
5841 5841 5841 5841 5841 5841 5841 5841 5841 5840 5840 5839 5839 5839 5839 5839 5839 5839 5839 5838 5838 5838 5837 5837 5837 5837 5837 5838 5838 5838 5838 5838 5838 5838 5839 5839 5839 5839 5838 5839 5840 5841 5842 5843 5843 5844 5844 5843 5840 5839 5840 5841 5841 5841 5841 5840 5839 5839 5839 5840 5840 5840 5841 5841 5841 5840 5840 5840 5839 5839 5839 5839 5839 5838 5838 5838 5838 5838 5838 5838 5837 5837 5836 5835 5835
5839 5839 5839 5839 5839 5839 5839 5839 5839 5839 5838 5838 5837 5837 5837 5837 5837 5837 5837 5836 5836 5836 5835 5835 5835 5835 5835 5835 5836 5836 5835 5836 5836 5836 5837 5837 5837 5837 5837 5837 5838 5839 5840 5841 5842 5842 5843 5842 5840 5839 5839 5840 5840 5840 5840 5840 5839 5839 5839 5839 5839 5840 5840 5840 5840 5840 5840 5839 5839 5839 5839 5839 5838 5838 5838 5837 5837 5837 5837 5837 5836 5836 5836 5835 5834
5837 5837 5837 5837 5837 5836 5836 5837 5836 5836 5837 5836 5836 5836 5836 5835 5835 5835 5835 5834 5834 5833 5833 5833 5833 5833 5833 5833 5833 5834 5834 5835 5835 5835 5836 5836 5835 5835 5835 5835 5835 5836 5838 5839 5840 5841 5842 5842 5840 5838 5838 5839 5840 5840 5840 5839 5839 5839 5838 5838 5839 5839 5839 5839 5839 5839 5839 5839 5839 5838 5838 5838 5838 5838 5837 5837 5836 5836 5836 5836 5835 5835 5835 5834 5834
5836 5835 5835 5834 5834 5834 5834 5834 5834 5834 5835 5835 5835 5834 5834 5833 5833 5833 5833 5832 5832 5831 5831 5830 5830 5831 5831 5831 5831 5832 5833 5833 5833 5833 5834 5834 5833 5833 5834 5833 5834 5834 5836 5837 5838 5839 5840 5841 5839 5838 5838 5838 5838 5839 5839 5838 5838 5838 5838 5838 5838 5838 5838 5838 5838 5838 5838 5838 5838 5838 5837 5837 5837 5837 5837 5836 5836 5835 5835 5834 5834 5834 5834 5833 5833
5834 5833 5833 5832 5831 5831 5831 5831 5831 5832 5832 5832 5832 5831 5831 5831 5831 5831 5831 5830 5830 5829 5829 5828 5828 5828 5828 5828 5829 5830 5831 5832 5831 5832 5832 5832 5832 5832 5832 5832 5832 5833 5834 5835 5836 5837 5838 5839 5838 5837 5837 5837 5837 5838 5838 5837 5837 5837 5837 5837 5837 5837 5837 5837 5837 5837 5837 5837 5836 5836 5836 5836 5836 5836 5836 5835 5835 5834 5834 5833 5833 5833 5833 5832 5832
5831 5831 5830 5830 5829 5829 5829 5829 5829 5829 5830 5830 5829 5829 5829 5830 5830 5829 5829 5828 5827 5827 5826 5825 5825 5825 5825 5826 5827 5828 5829 5829 5829 5829 5830 5830 5830 5830 5830 5830 5831 5831 5832 5833 5834 5835 5836 5837 5837 5836 5836 5836 5836 5836 5836 5836 5836 5836 5836 5836 5836 5836 5836 5835 5836 5835 5835 5835 5835 5835 5835 5835 5835 5835 5835 5834 5834 5833 5833 5833 5832 5832 5832 5831 5831
5829 5828 5828 5827 5827 5827 5826 5827 5827 5827 5828 5828 5828 5827 5828 5828 5828 5827 5827 5826 5825 5824 5823 5823 5823 5823 5823 5824 5825 5825 5826 5826 5826 5827 5827 5828 5828 5829 5829 5828 5829 5830 5830 5831 5832 5833 5834 5835 5836 5835 5835 5835 5835 5835 5835 5835 5835 5834 5834 5834 5834 5834 5834 5834 5834 5834 5834 5834 5834 5833 5833 5833 5833 5833 5833 5833 5833 5832 5832 5832 5832 5831 5831 5830 5830
5826 5825 5825 5825 5824 5824 5824 5824 5825 5825 5826 5826 5825 5825 5826 5826 5826 5825 5825 5823 5822 5821 5820 5821 5821 5821 5821 5822 5823 5823 5823 5824 5824 5824 5825 5826 5826 5827 5827 5827 5827 5828 5829 5829 5830 5831 5832 5833 5834 5834 5834 5834 5834 5834 5833 5833 5833 5833 5832 5832 5832 5832 5832 5833 5833 5833 5833 5833 5832 5832 5832 5832 5831 5831 5831 5831 5831 5831 5831 5831 5831 5830 5830 5829 5829
5823 5823 5822 5822 5822 5822 5822 5822 5822 5823 5823 5823 5823 5823 5824 5824 5824 5823 5822 5820 5818 5817 5818 5819 5819 5818 5819 5819 5820 5820 5820 5821 5821 5822 5823 5824 5824 5825 5826 5825 5825 5826 5827 5828 5828 5829 5830 5831 5832 5833 5833 5833 5833 5832 5832 5832 5831 5831 5830 5830 5830 5831 5831 5831 5831 5832 5832 5832 5831 5830 5830 5830 5829 5829 5829 5829 5829 5830 5830 5830 5829 5829 5828 5828 5828
5821 5820 5820 5820 5820 5820 5820 5820 5820 5821 5821 5821 5821 5821 5822 5822 5821 5820 5819 5817 5815 5814 5816 5817 5816 5814 5815 5816 5817 5818 5817 5818 5819 5820 5821 5821 5822 5823 5824 5824 5824 5825 5825 5826 5826 5827 5828 5829 5830 5831 5832 5832 5831 5831 5830 5830 5830 5829 5829 5829 5829 5829 5829 5830 5830 5830 5831 5830 5829 5829 5829 5828 5828 5828 5827 5828 5828 5828 5828 5828 5828 5828 5827 5827 5826
5819 5818 5817 5817 5818 5818 5818 5818 5819 5819 5819 5819 5819 5820 5820 5819 5818 5817 5815 5813 5811 5812 5814 5814 5813 5812 5813 5813 5814 5815 5815 5815 5817 5817 5818 5819 5820 5821 5822 5822 5823 5823 5823 5824 5824 5825 5826 5827 5828 5829 5830 5830 5830 5829 5829 5828 5828 5827 5827 5827 5828 5828 5828 5828 5829 5829 5829 5829 5828 5827 5827 5827 5826 5826 5826 5826 5826 5827 5827 5826 5826 5826 5826 5825 5825
5816 5816 5815 5815 5816 5816 5816 5816 5817 5816 5816 5816 5817 5817 5817 5816 5815 5813 5812 5810 5809 5810 5812 5812 5811 5810 5811 5812 5813 5813 5814 5814 5815 5815 5816 5817 5818 5819 5820 5820 5821 5821 5821 5822 5823 5823 5824 5825 5826 5827 5828 5828 5828 5827 5827 5826 5826 5826 5826 5826 5826 5826 5827 5827 5827 5827 5828 5827 5827 5826 5826 5826 5825 5825 5825 5825 5825 5825 5825 5825 5825 5824 5824 5824 5824
5814 5813 5813 5813 5813 5814 5814 5814 5814 5814 5814 5814 5815 5815 5814 5813 5811 5810 5808 5807 5806 5807 5810 5811 5809 5808 5809 5809 5810 5811 5812 5812 5813 5814 5814 5815 5816 5817 5818 5818 5819 5819 5820 5820 5821 5822 5823 5823 5824 5825 5825 5826 5825 5825 5825 5824 5824 5824 5824 5824 5825 5825 5825 5826 5826 5826 5826 5826 5826 5825 5825 5825 5824 5824 5824 5824 5824 5823 5823 5823 5823 5823 5823 5822 5822
5811 5811 5811 5811 5811 5811 5812 5812 5811 5811 5811 5812 5812 5812 5811 5810 5809 5807 5805 5804 5804 5804 5806 5808 5808 5807 5807 5806 5808 5809 5809 5810 5811 5812 5812 5814 5814 5815 5815 5816 5817 5817 5818 5819 5820 5821 5821 5821 5822 5823 5823 5823 5823 5823 5823 5823 5823 5823 5823 5823 5823 5823 5824 5824 5825 5825 5825 5825 5825 5824 5824 5823 5823 5823 5823 5823 5823 5822 5822 5822 5822 5821 5821 5821 5821
5809 5809 5809 5809 5809 5809 5809 5809 5809 5809 5809 5809 5809 5809 5809 5808 5806 5805 5803 5802 5802 5802 5803 5805 5805 5805 5805 5805 5806 5807 5808 5808 5809 5809 5810 5811 5812 5813 5813 5814 5815 5816 5817 5818 5818 5819 5819 5820 5820 5821 5821 5822 5822 5822 5821 5821 5821 5821 5821 5821 5822 5822 5823 5823 5823 5823 5824 5824 5823 5823 5823 5822 5822 5822 5822 5822 5821 5821 5821 5821 5820 5820 5820 5820 5819
5807 5807 5807 5807 5807 5807 5807 5807 5807 5807 5807 5807 5807 5807 5806 5805 5804 5803 5802 5801 5799 5799 5800 5801 5802 5802 5803 5804 5804 5805 5806 5806 5807 5807 5807 5808 5809 5811 5812 5812 5813 5814 5815 5816 5817 5817 5817 5818 5818 5819 5820 5820 5820 5820 5820 5820 5820 5820 5820 5821 5821 5821 5822 5822 5822 5822 5822 5822 5822 5822 5822 5821 5821 5821 5821 5820 5820 5820 5820 5820 5819 5819 5819 5818 5818
5806 5805 5805 5805 5805 5805 5805 5805 5805 5805 5804 5805 5805 5804 5803 5802 5801 5800 5800 5799 5797 5796 5797 5798 5799 5800 5801 5802 5802 5803 5803 5804 5805 5806 5806 5805 5806 5808 5810 5810 5811 5812 5814 5815 5815 5816 5816 5816 5817 5817 5818 5819 5819 5819 5819 5819 5819 5819 5819 5820 5820 5820 5821 5821 5821 5821 5821 5821 5821 5821 5821 5821 5820 5820 5820 5819 5820 5819 5819 5819 5819 5818 5818 5817 5817
5804 5803 5803 5803 5803 5803 5803 5803 5803 5803 5803 5803 5802 5801 5800 5800 5799 5798 5798 5797 5794 5793 5794 5795 5797 5798 5798 5799 5800 5801 5802 5802 5804 5804 5804 5804 5805 5807 5807 5809 5810 5811 5812 5813 5814 5814 5815 5815 5815 5816 5817 5817 5818 5818 5818 5818 5818 5818 5819 5819 5819 5819 5820 5820 5820 5820 5820 5820 5820 5820 5820 5820 5819 5819 5819 5819 5819 5819 5819 5818 5818 5817 5817 5816 5816
5801 5801 5801 5801 5801 5801 5801 5801 5801 5802 5801 5801 5800 5799 5798 5797 5796 5795 5794 5793 5792 5791 5791 5793 5794 5795 5795 5796 5797 5799 5800 5801 5802 5803 5803 5803 5804 5805 5806 5807 5809 5809 5810 5811 5812 5813 5814 5814 5814 5815 5816 5816 5816 5816 5816 5817 5817 5818 5818 5818 5818 5819 5819 5819 5819 5820 5820 5819 5819 5819 5819 5819 5818 5818 5818 5818 5819 5819 5818 5818 5817 5817 5816 5816 5816
5799 5798 5798 5798 5799 5799 5799 5799 5800 5800 5800 5800 5799 5798 5796 5795 5794 5793 5792 5791 5790 5789 5790 5791 5792 5792 5793 5794 5796 5796 5797 5798 5800 5801 5801 5801 5803 5804 5805 5806 5808 5808 5809 5810 5811 5812 5812 5813 5813 5814 5814 5814 5814 5815 5815 5816 5817 5817 5817 5817 5818 5818 5818 5818 5818 5819 5819 5819 5819 5818 5818 5818 5818 5818 5818 5818 5818 5818 5818 5818 5817 5817 5816 5816 5815
5797 5796 5796 5796 5797 5797 5798 5798 5799 5799 5799 5799 5797 5795 5793 5792 5792 5791 5790 5790 5790 5790 5789 5789 5790 5790 5791 5793 5795 5795 5795 5796 5798 5799 5800 5800 5802 5803 5803 5805 5807 5808 5808 5809 5811 5811 5811 5811 5812 5813 5813 5813 5813 5814 5814 5815 5816 5816 5816 5816 5817 5817 5817 5817 5817 5818 5818 5818 5818 5818 5817 5817 5817 5817 5817 5817 5817 5817 5818 5818 5817 5817 5816 5816 5815
5795 5795 5795 5795 5795 5795 5796 5796 5797 5797 5797 5797 5795 5793 5791 5790 5790 5789 5788 5788 5788 5789 5789 5788 5788 5789 5791 5792 5793 5794 5794 5795 5796 5798 5799 5800 5801 5801 5802 5803 5805 5806 5808 5808 5809 5810 5810 5810 5811 5811 5812 5812 5812 5813 5813 5814 5814 5814 5815 5815 5816 5816 5816 5816 5816 5817 5817 5817 5817 5817 5817 5816 5817 5817 5816 5816 5817 5817 5817 5817 5817 5817 5816 5816 5815
5793 5793 5793 5793 5792 5792 5793 5793 5794 5794 5794 5794 5793 5792 5790 5789 5790 5788 5787 5786 5786 5786 5786 5787 5787 5788 5789 5790 5791 5792 5793 5793 5795 5796 5797 5798 5799 5800 5801 5802 5803 5805 5806 5807 5808 5808 5808 5809 5809 5810 5811 5811 5811 5812 5812 5813 5813 5814 5814 5814 5814 5815 5815 5815 5815 5816 5816 5816 5816 5816 5816 5816 5816 5816 5816 5816 5816 5816 5816 5817 5817 5816 5816 5816 5815
5790 5789 5789 5789 5789 5789 5789 5790 5790 5790 5790 5791 5791 5791 5790 5790 5790 5788 5787 5786 5785 5783 5784 5785 5785 5786 5788 5789 5790 5790 5791 5792 5794 5795 5796 5798 5799 5800 5801 5801 5802 5803 5804 5805 5806 5806 5806 5807 5808 5809 5810 5810 5810 5811 5811 5812 5812 5813 5813 5813 5813 5814 5814 5814 5814 5814 5815 5815 5815 5815 5815 5815 5815 5815 5815 5815 5815 5815 5816 5816 5816 5816 5816 5816 5816
5787 5786 5786 5786 5786 5786 5786 5787 5787 5787 5787 5787 5787 5788 5789 5789 5789 5788 5787 5785 5783 5782 5782 5783 5783 5784 5786 5787 5788 5788 5788 5789 5792 5794 5795 5797 5798 5799 5800 5800 5801 5802 5803 5804 5804 5804 5804 5805 5806 5807 5808 5808 5809 5809 5810 5810 5811 5811 5812 5812 5812 5813 5813 5813 5813 5813 5813 5813 5814 5814 5814 5814 5814 5814 5814 5814 5815 5815 5815 5815 5816 5816 5816 5816 5815
5784 5784 5784 5784 5783 5783 5784 5784 5785 5784 5784 5784 5784 5785 5786 5788 5788 5787 5787 5785 5783 5781 5780 5781 5781 5783 5784 5785 5785 5786 5786 5787 5789 5791 5793 5795 5796 5798 5799 5798 5799 5800 5801 5802 5803 5803 5803 5803 5804 5805 5806 5806 5807 5808 5808 5809 5809 5810 5810 5811 5811 5812 5812 5812 5811 5812 5812 5812 5812 5812 5812 5813 5813 5813 5813 5814 5814 5814 5814 5814 5815 5815 5815 5815 5815
5782 5781 5781 5781 5781 5781 5781 5781 5782 5782 5782 5782 5781 5781 5783 5785 5786 5786 5786 5786 5784 5781 5780 5780 5780 5781 5783 5783 5783 5785 5786 5786 5788 5789 5791 5793 5794 5796 5797 5797 5797 5798 5800 5800 5801 5801 5801 5802 5803 5804 5804 5805 5805 5806 5807 5807 5808 5808 5809 5810 5810 5811 5810 5810 5810 5810 5810 5811 5811 5811 5811 5811 5812 5812 5812 5813 5813 5813 5813 5814 5814 5814 5814 5814 5814
5780 5779 5779 5779 5779 5779 5779 5779 5779 5779 5779 5779 5779 5779 5780 5781 5783 5784 5784 5785 5784 5782 5781 5780 5780 5781 5782 5782 5783 5784 5785 5786 5787 5788 5790 5792 5793 5793 5795 5795 5795 5797 5798 5799 5799 5800 5800 5801 5802 5802 5803 5803 5804 5804 5805 5805 5806 5807 5807 5808 5809 5809 5809 5809 5809 5809 5809 5809 5810 5810 5810 5810 5810 5811 5811 5811 5812 5812 5812 5813 5813 5813 5813 5813 5813
5777 5777 5777 5777 5777 5777 5777 5777 5777 5777 5777 5777 5777 5777 5777 5778 5780 5781 5782 5782 5782 5782 5780 5780 5780 5781 5781 5782 5782 5783 5784 5785 5786 5787 5789 5790 5790 5791 5793 5793 5794 5795 5796 5797 5798 5798 5798 5799 5800 5801 5801 5802 5802 5803 5803 5803 5804 5805 5806 5806 5807 5807 5807 5807 5807 5807 5808 5808 5809 5809 5809 5809 5810 5810 5810 5810 5811 5811 5811 5812 5812 5812 5812 5812 5812
5775 5775 5776 5776 5776 5775 5775 5775 5774 5774 5774 5774 5775 5775 5775 5776 5777 5778 5779 5779 5780 5780 5779 5778 5779 5779 5780 5781 5781 5782 5783 5784 5785 5787 5788 5788 5788 5790 5791 5791 5792 5793 5794 5795 5796 5796 5797 5798 5798 5799 5799 5800 5800 5801 5801 5802 5803 5803 5804 5804 5805 5806 5806 5806 5806 5806 5807 5807 5808 5808 5808 5808 5808 5808 5809 5809 5809 5810 5810 5810 5811 5811 5811 5811 5811
5773 5773 5774 5774 5773 5773 5772 5772 5772 5771 5771 5772 5772 5773 5773 5773 5774 5775 5776 5776 5777 5778 5778 5777 5777 5778 5779 5779 5780 5781 5782 5782 5784 5785 5786 5786 5787 5788 5789 5789 5790 5791 5791 5792 5793 5794 5795 5796 5797 5797 5797 5798 5798 5799 5799 5800 5801 5801 5802 5803 5803 5804 5804 5804 5804 5804 5805 5805 5806 5806 5806 5806 5806 5807 5807 5808 5808 5808 5809 5809 5810 5810 5810 5810 5810
5771 5771 5771 5771 5770 5770 5770 5769 5769 5769 5769 5769 5770 5770 5770 5770 5771 5772 5772 5773 5774 5776 5776 5776 5776 5776 5777 5778 5778 5779 5779 5780 5781 5783 5784 5785 5786 5787 5787 5787 5787 5788 5789 5790 5790 5791 5793 5794 5794 5795 5796 5796 5797 5797 5798 5798 5799 5799 5800 5801 5801 5802 5802 5802 5802 5803 5803 5804 5804 5804 5804 5804 5805 5805 5806 5806 5806 5807 5807 5808 5808 5808 5809 5809 5808